Regional Weather Roundup
Issued by NWS

Home | Current Version | Previous Version | Text Only | Print | Product List | Glossary Off
Versions: 1 2 3 4 5 6 7 8 9 10 11 12 13 14 15 16 17 18 19 20 21 22 23 24 25 26 27 28 29 30 31 32 33 34 35 36 37 38 39 40 41 42 43 44 45 46 47 48 49 50

534
ASUS43 KDMX 232206
RWRIA

WEATHER ROUNDUP FOR IOWA
NATIONAL WEATHER SERVICE DES MOINES IA
500 PM CDT MON OCT 23 2017

NOTE: "FAIR" INDICATES FEW OR NO CLOUDS BELOW 12,000 FEET WITH NO
SIGNIFICANT WEATHER AND/OR OBSTRUCTIONS TO VISIBILITY.

* - THESE STATIONS ARE NOT NWS STATIONS...THUS NOT UNDER NWS
QUALITY CONTROL.  THEY ALSO DO NOT REPORT WEATHER SUCH
AS PRECIPITATION OR FOG.

IAZ001>003-012>014-020>022-031>034-043>046-232300-
   NORTHWEST IOWA

CITY           SKY/WX    TMP DP  RH WIND       PRES   REMARKS
CARROLL *      CLOUDY    54  34  47 NW28G44   29.95R
CHEROKEE *     CLOUDY    51  35  54 NW20G29   30.01R
DENISON *      CLOUDY    55  34  44 NW31G41   29.99R
LE MARS *      CLOUDY    55  30  38 NW18G29   30.03R
ORANGE CITY *  MOSUNNY   55  30  38 N22G31    30.01S
SHELDON *      PTSUNNY   52  32  46 NW18G30   29.99R
SIOUX CITY     PTSUNNY   56  31  38 N29G46    30.03R
SPENCER        CLOUDY    51  32  48 NW26G36   29.98R
STORM LAKE *   PTSUNNY   50  36  57 NW29G39   29.98R
$$

IAZ055>058-069>071-079>083-090>094-232300-
   SOUTHWEST IOWA

CITY           SKY/WX    TMP DP  RH WIND       PRES   REMARKS
ATLANTIC *     CLOUDY    57  36  44 NW26G37   29.98R
AUDUBON *      CLOUDY    55  34  44 NW14G29   29.97S
CLARINDA *     PTSUNNY   61  32  33 NW23G33   30.00R
COUNCIL BLFS * CLOUDY    57  34  41 NW20G36   30.01R
CRESTON *      CLOUDY    57  36  44 NW28G40   29.95R
HARLAN  *      PTSUNNY   57  34  41 NW31G44   30.02R
LAMONI         CLOUDY    60  35  39 NW24G36   29.91R
RED OAK *      CLOUDY    59  32  36 NW21G37   29.99R
SHENANDOAH *   MOSUNNY   63  32  31 NW24G46   30.00R
$$

IAZ047>049-059>061-072>074-084-232300-
   CENTRAL IOWA

CITY           SKY/WX    TMP DP  RH WIND       PRES   REMARKS
AMES           CLOUDY    56  38  50 NW25G37   29.89R
ANKENY *       CLOUDY    57  36  44 NW28G40   29.89R
BOONE *        CLOUDY    54  36  50 NW23G33   29.89R
CHARITON *     PTSUNNY   59  36  41 NW23      29.88R
DES MOINES     LGT RAIN  58  34  40 NW24G45   29.89R
GRINNELL*      SUNNY     59  38  46 NW25G38   29.84R
KNOXVILLE *    CLOUDY    59  37  44 NW25G32   29.85R
MARSHALLTOWN   SUNNY     57  38  48 NW26G35   29.83R
NEWTON *       CLOUDY    59  37  44 NW21G32   29.85R
PELLA *        CLOUDY    60  38  43 NW18      29.85S
PERRY *        CLOUDY    55  33  42 NW17G28   29.94R
$$

IAZ004>006-015-016-023>025-035-036-232300-
   NORTH CENTRAL IOWA

CITY           SKY/WX    TMP DP  RH WIND       PRES   REMARKS
ALGONA *       CLOUDY    50  39  66 NW23G39   29.92R
CLARION *      CLOUDY    52  39  62 NW35G41   29.89R
ESTHERVILLE    CLOUDY    48  35  60 NW21G37   29.94S
FORT DODGE *   CLOUDY    51  39  63 NW17G24   29.93R
MASON CITY     CLOUDY    50  38  63 NW23G36   29.87R
FOREST CITY *  CLOUDY    50  39  66 NW21G29   29.87R
WEBSTER CITY * CLOUDY    54  37  54 NW23G37   29.89R
IOWA FALLS *   PTSUNNY   55  37  50 NW22G31   29.87R
$$

IAZ007>011-017>019-026>030-037>042-050>054-066-232300-
   NORTHEAST IOWA

CITY           SKY/WX    TMP DP  RH WIND       PRES   REMARKS
CEDAR RAPIDS   MOSUNNY   58  46  64 NW8       29.77F
CHARLES CITY * MOSUNNY   55  36  47 W18G31    29.81R
CLINTON *      CLOUDY    58  45  62 NW12      29.74S
DECORAH *      MOSUNNY   57  37  47 NW12G22   29.74R
DUBUQUE        LGT RAIN  51  46  83 N8        29.75R
MONTICELLO *   MOSUNNY   54  46  76 NW8       29.76R
OELWEIN *      MOSUNNY   57  37  47 NW29G37   29.78R
WATERLOO       PTSUNNY   56  37  49 NW17G33   29.80R
$$

IAZ064-065-067-068-078-232300-
   EAST CENTRAL IOWA

CITY           SKY/WX    TMP DP  RH WIND       PRES   REMARKS
DAVENPORT      CLOUDY    58  44  60 NW9       29.77S
IOWA CITY      MOSUNNY   57  45  64 NW9       29.80R
MUSCATINE *    CLOUDY    57  45  62 W13G20    29.79R
QUAD CITIES    CLOUDY    59  44  57 NW12      29.74F
$$

IAZ062-063-075>077-085>089-095>099-232300-
   SOUTHEAST IOWA

CITY           SKY/WX    TMP DP  RH WIND       PRES   REMARKS
BURLINGTON     CLOUDY    57  45  64 W6        29.81R
FAIRFIELD *    CLOUDY    59  45  58 NW12      29.81S
FORT MADISON * DRIZZLE   57  46  67 NW13G18   29.83R
KEOKUK *       CLOUDY    57  45  62 NW9       29.81S
OSKALOOSA *      N/A     62  41  46 NW20G30   29.82S
OTTUMWA        SUNNY     60  42  51 NW13G23   29.82S
WASHINGTON *   CLOUDY    57  46  67 W12       29.82S
$$

ABBREVIATIONS USED IN REMARKS
   TC - TEMPERATURES IN CELSIUS
  WCI - WIND CHILL INDEX
   HX - HEAT INDEX
  VSB - VISIBILITY
$$





USA.gov is the U.S. government's official web portal to all federal, state and local government web resources and services.